Date String (YYYY-MM-DD hh:mm:ss) UTC,Instrument flags,absolute air pressure of the measurement (hPa),sample flow rate (lpm),inlet stack bypass flow (lpm),air temperature of the measurement (°C),ambient temperature measured by the external sensor (°C),aerosol sample conditioner tube jacket temperature (°C),OPC LED temperature (°C),internal box temperature (°C),relative humidity of the measurement (%),span deviation,mass concentration of particles derived from Lorenz-Mie calculation of OPC scattering (μg/m³),mass concentration of particles derived from Lorenz-Mie calculation of OPC scattering (μg/m³),mass concentration of particles derived from Lorenz-Mie calculation of OPC scattering (μg/m³)
DateTimeUTC,F1_M11,P_M11,Q1_M11,Q2_M11,T1_M11,T2_M11,T3_M11,T4_M11,T5_M11,U1_M11,ZSPAN_M11,X0_M11,X2_M11,X1_M11
2023-06-16 19:00:00,SystemResetWarning,0833.2,5.00,000.00,030.5,029.1,000.0,038.9,032.0,28.8,0000.0,0004.33,0002.72,0002.18
2023-06-16 19:01:00,SystemResetWarning,0833.2,5.00,000.00,030.5,028.8,000.0,038.9,032.1,28.8,0000.0,0004.19,0002.63,0002.12
2023-06-16 19:02:00,SystemResetWarning,0833.2,4.99,000.00,030.5,026.5,000.0,038.9,031.9,28.8,0000.0,0004.11,0002.60,0002.08
2023-06-16 19:03:00,SystemResetWarning,0833.1,5.01,000.00,030.4,025.1,000.0,038.8,031.8,29.2,0000.0,0004.43,0002.62,0002.05
2023-06-16 19:04:00,SystemResetWarning,0833.2,5.01,000.00,030.3,025.0,000.0,038.8,031.4,29.5,0000.0,0005.01,0002.62,0002.02
2023-06-16 19:05:00,SystemResetWarning,0833.2,5.00,000.00,030.2,025.4,000.0,038.8,031.3,29.2,0000.0,0005.04,0002.58,0001.98
2023-06-16 19:06:00,SystemResetWarning,0833.2,4.99,000.00,030.1,025.9,000.0,038.8,031.4,29.0,0000.0,0005.09,0002.57,0001.95
2023-06-16 19:07:00,SystemResetWarning,0833.2,5.00,000.00,030.1,026.4,000.0,038.7,031.4,29.1,0000.0,0005.27,0002.63,0001.93
2023-06-16 19:08:00,SystemResetWarning,0833.3,5.00,000.00,030.1,026.8,000.0,038.7,031.5,28.9,0000.0,0005.43,0002.68,0001.89
2023-06-16 19:09:00,SystemResetWarning,0833.4,4.98,000.00,030.0,027.1,000.0,038.7,031.5,28.8,0000.0,0005.36,0002.63,0001.84
2023-06-16 19:10:00,SystemResetWarning,0833.5,5.00,000.00,030.0,027.4,000.0,038.7,031.5,28.7,0000.0,0005.21,0002.55,0001.80
2023-06-16 19:11:00,SystemResetWarning,0833.4,5.01,000.00,030.0,027.5,000.0,038.7,031.4,28.9,0000.0,0005.18,0002.52,0001.76
2023-06-16 19:12:00,SystemResetWarning,0833.4,5.00,000.00,030.0,027.7,000.0,038.7,031.4,29.1,0000.0,0005.11,0002.55,0001.73
2023-06-16 19:13:00,SystemResetWarning,0833.4,4.99,000.00,030.0,027.8,000.0,038.7,031.4,29.3,0000.0,0005.30,0002.61,0001.71
2023-06-16 19:14:00,SystemResetWarning,0833.4,4.99,000.00,030.0,027.9,000.0,038.6,031.4,29.4,0000.0,0005.49,0002.71,0001.70
2023-06-16 19:15:00,SystemResetWarning,0833.3,5.01,000.00,029.9,028.0,000.0,038.6,031.4,29.4,0000.0,0004.86,0002.78,0001.69
2023-06-16 19:16:00,SystemResetWarning,0833.3,5.01,000.00,029.9,028.1,000.0,038.6,031.5,29.5,0000.0,0005.26,0002.85,0001.68
2023-06-16 19:17:00,SystemResetWarning,0833.3,5.01,000.00,029.9,028.1,000.0,038.6,031.5,29.6,0000.0,0005.68,0002.94,0001.68
2023-06-16 19:18:00,SystemResetWarning,0833.2,5.00,000.00,030.0,028.2,000.0,038.6,031.5,29.7,0000.0,0005.80,0002.98,0001.68
2023-06-16 19:19:00,SystemResetWarning,0833.2,5.00,000.00,030.0,028.2,000.0,038.6,031.5,29.6,0000.0,0007.17,0003.00,0001.68
2023-06-16 19:20:00,SystemResetWarning,0833.1,5.00,000.00,030.0,028.3,000.0,038.6,031.5,29.5,0000.0,0007.35,0003.03,0001.67
2023-06-16 19:21:00,SystemResetWarning,0833.2,5.00,000.00,030.0,028.3,000.0,038.6,031.5,29.5,0000.0,0007.55,0003.10,0001.68
2023-06-16 19:22:00,SystemResetWarning,0833.2,5.00,000.00,030.0,028.4,000.0,038.6,031.6,29.1,0000.0,0007.62,0003.11,0001.67
2023-06-16 19:23:00,SystemResetWarning,0833.2,5.00,000.00,030.0,028.4,000.0,038.6,031.6,29.0,0000.0,0007.64,0003.11,0001.65
2023-06-16 19:24:00,SystemResetWarning,0833.1,5.00,000.00,030.0,028.5,000.0,038.6,031.6,29.2,0000.0,0007.79,0003.15,0001.65
2023-06-16 19:25:00,SystemResetWarning,0833.1,5.00,000.00,030.1,028.5,000.0,038.6,031.6,29.4,0000.0,0008.01,0003.14,0001.64
2023-06-16 19:26:00,SystemResetWarning,0833.1,5.00,000.00,030.1,028.5,000.0,038.6,031.6,29.3,0000.0,0007.98,0003.12,0001.63
2023-06-16 19:27:00,SystemResetWarning,0833.2,5.00,000.00,030.1,028.6,000.0,038.6,031.7,29.3,0000.0,0007.79,0003.06,0001.60
2023-06-16 19:28:00,SystemResetWarning,0833.1,5.00,000.00,030.1,028.6,000.0,038.7,031.7,29.4,0000.0,0007.63,0003.00,0001.58
2023-06-16 19:29:00,SystemResetWarning,0833.2,5.00,000.00,030.1,028.6,000.0,038.7,031.7,29.5,0000.0,0007.56,0002.88,0001.53
2023-06-16 19:30:00,SystemResetWarning,0833.2,5.00,000.00,030.2,028.6,000.0,038.7,031.7,29.3,0000.0,0007.19,0002.80,0001.48
2023-06-16 19:31:00,SystemResetWarning,0833.2,5.00,000.00,030.2,028.7,000.0,038.7,031.8,29.5,0000.0,0006.92,0002.80,0001.48
2023-06-16 19:32:00,SystemResetWarning,0833.2,5.00,000.00,030.2,028.7,000.0,038.7,031.8,29.5,0000.0,0006.78,0002.82,0001.47
2023-06-16 19:33:00,SystemResetWarning,0833.2,4.99,000.00,030.2,028.7,000.0,038.7,031.7,29.4,0000.0,0006.70,0002.84,0001.49
2023-06-16 19:34:00,SystemResetWarning,0833.2,5.00,000.00,030.2,028.8,000.0,038.7,031.7,29.5,0000.0,0006.89,0002.91,0001.52
2023-06-16 19:35:00,SystemResetWarning,0833.3,4.99,000.00,030.3,028.8,000.0,038.8,031.8,29.6,0000.0,0006.68,0002.85,0001.51
2023-06-16 19:36:00,SystemResetWarning,0833.3,5.00,000.00,030.3,028.8,000.0,038.8,031.8,29.4,0000.0,0006.03,0002.73,0001.52
2023-06-16 19:37:00,SystemResetWarning,0833.4,5.00,000.00,030.3,028.8,000.0,038.8,031.9,29.5,0000.0,0006.12,0002.67,0001.51
2023-06-16 19:38:00,SystemResetWarning,0833.4,5.00,000.00,030.3,028.8,000.0,038.8,031.9,29.6,0000.0,0006.18,0002.67,0001.53
2023-06-16 19:39:00,SystemResetWarning,0833.4,5.00,000.00,030.3,028.9,000.0,038.8,031.9,29.5,0000.0,0005.99,0002.63,0001.55
2023-06-16 19:40:00,SystemResetWarning,0833.5,5.00,000.00,030.4,028.9,000.0,038.8,031.9,29.4,0000.0,0006.02,0002.65,0001.58
2023-06-16 19:41:00,SystemResetWarning,0833.6,5.00,000.00,030.4,028.9,000.0,038.8,031.9,29.5,0000.0,0005.13,0002.62,0001.60
2023-06-16 19:42:00,SystemResetWarning,0833.6,5.00,000.00,030.4,028.9,000.0,038.9,031.9,29.8,0000.0,0005.02,0002.58,0001.61
2023-06-16 19:43:00,SystemResetWarning,0833.7,5.00,000.00,030.4,028.9,000.0,038.9,032.0,29.8,0000.0,0005.08,0002.48,0001.62
2023-06-16 19:44:00,SystemResetWarning,0833.7,4.99,000.00,030.4,028.9,000.0,038.9,032.0,29.4,0000.0,0005.09,0002.43,0001.63
2023-06-16 19:45:00,SystemResetWarning,0833.7,5.00,000.00,030.4,028.9,000.0,038.9,032.0,29.3,0000.0,0005.39,0002.33,0001.61
2023-06-16 19:46:00,SystemResetWarning,0833.6,4.98,000.00,030.4,027.1,000.0,038.9,031.9,29.4,0000.0,0005.70,0002.35,0001.64
2023-06-16 19:47:00,SystemResetWarning,0833.5,5.00,000.00,030.4,025.2,000.0,038.8,031.6,29.5,0000.0,0005.74,0002.34,0001.64
2023-06-16 19:48:00,SystemResetWarning,0833.5,5.01,000.00,030.3,024.8,000.0,038.7,031.4,29.6,0000.0,0006.62,0002.43,0001.66
2023-06-16 19:49:00,SystemResetWarning,0833.5,5.01,000.00,030.1,025.1,000.0,038.7,031.2,29.9,0000.0,0007.39,0002.53,0001.69
2023-06-16 19:50:00,SystemResetWarning,0833.4,4.99,000.00,030.0,025.6,000.0,038.7,031.1,30.2,0000.0,0007.50,0002.58,0001.70
2023-06-16 19:51:00,SystemResetWarning,0833.4,5.00,000.00,030.0,026.1,000.0,038.7,031.2,30.5,0000.0,0007.53,0002.60,0001.72
2023-06-16 19:52:00,SystemResetWarning,0833.4,5.00,000.00,030.0,026.5,000.0,038.7,031.2,30.5,0000.0,0007.61,0002.65,0001.75
2023-06-16 19:53:00,SystemResetWarning,0833.4,5.00,000.00,030.0,026.9,000.0,038.6,031.3,30.7,0000.0,0007.50,0002.63,0001.77
2023-06-16 19:54:00,SystemResetWarning,0833.4,5.00,000.00,030.0,027.2,000.0,038.6,031.3,31.0,0000.0,0007.35,0002.63,0001.78
2023-06-16 19:55:00,SystemResetWarning,0833.3,5.00,000.00,030.0,027.5,000.0,038.6,031.4,30.9,0000.0,0007.30,0002.66,0001.80
2023-06-16 19:56:00,SystemResetWarning,0833.3,4.99,000.00,030.0,027.7,000.0,038.6,031.4,30.9,0000.0,0006.76,0002.69,0001.84
2023-06-16 19:57:00,SystemResetWarning,0833.2,5.00,000.00,030.0,027.8,000.0,038.6,031.5,30.8,0000.0,0006.41,0002.65,0001.85
2023-06-16 19:58:00,SystemResetWarning,0833.2,5.01,000.00,030.0,028.0,000.0,038.6,031.5,31.1,0000.0,0006.33,0002.68,0001.88
2023-06-16 19:59:00,SystemResetWarning,0833.2,5.00,000.00,030.0,028.1,000.0,038.6,031.5,31.3,0000.0,0005.03,0002.61,0001.90
